ARIANE 44LP DEB, 25542

Orbit data source: Space-Track

ARIANE 44LP DEB, 25542 is space debris in HEO originally from a launch on Sun, 11 Dec 1988 UTC launched from the French Guiana (FRGUI). Debris objects in space refer to the collection of defunct objects orbiting the Earth. Examples of debris include non-operational satellites, rocket bodies, and fragments generated from explosions, collisions, or faulty payload assembly.

Loading next visibility...
Identifier
25542, 1988-109J
Orbit
HEO
Country
Flag of FRFR
Related business
Manufacturer
Unknown
Mission
Spacecraft
Bus & Motor
Unknown
Mass
Unknown
Launch date (UTC)
1988-12-11 (37 years ago)
Launch vehicle
Unknown
Launch site
French Guiana (FRGUI)
Object type
Payload
Rocket body
Debris
Shape & HBR
Unknown shape, 2.0 m
Radar Cross Section
Large (>1 m²)

Expand to show TLE details & history
Last TLE update: 20 hours ago

TLE from 20 hours ago
0 ARIANE 44LP DEB
1 25542U 88109J   26125.26519442 -.00000024  00000-0  13770-3 0  9991
2 25542   6.5138 202.1997 7142595 121.8852 326.5583  2.33854104237467
Epoch: 2026-05-05T06:21Z
TLE epoch observation values (Epoch: 2026-05-05T06:21:52.797Z)
Latitude
-0.00002°
Longitude
-116.17373°
Altitude
12,446.671 km
Speed
5.071 km/s
True Right ascension
13h 29m 45s
True Declination
0° 00' 00"
Sunlit
Object was in daylight at epoch
Visualization orbit readout
Latitude
Unknown
Longitude
Unknown
Altitude
Unknown
Speed
Unknown
Apparent Right ascension
Unknown
Apparent Declination
Unknown
Sunlit
N/A
Visualization observer readout
Local Sidereal Time
09:48:10
Azimuth
Unknown
Elevation
Unknown
Doppler factor
Unknown
Orbital elements
Apogee altitude
34,731.521 km
Perigee altitude
474.206 km
Semi-major axis
23,981.001 km
Eccentricity
0.71426
Inclination
6.5138°
RAAN
202.1997°
Arg. of periapsis
121.8852°
True anomaly
238.2512°
Mean anomaly
326.5583°
Eccentric anomaly
287.5361°
Mean motion
0.58444 °/min
Orbital period
615.97 mins
BSTAR
0.0001377
Loading maneuver chart data...
Computing Atmospheric mass density...
Loading historical data...
Loading historical data...
Loading historical data...
Loading historical data...
Loading historical data...
Loading historical data...
Loading historical data...

Documentation

Showing up to 5 results
|